Regional Weather Roundup
Issued by NWS Cleveland, OH

Home | Current Version | Previous Version | Text Only | Print | Product List | Glossary On
Versions: 1 2 3 4 5 6 7 8 9 10 11 12 13 14 15 16 17 18 19 20 21 22 23 24 25 26 27 28 29 30 31 32 33 34 35 36 37 38 39 40 41 42 43 44 45 46 47 48 49 50
000
ASUS41 KCLE 260310
RWRCLE
OHIO REGIONAL WEATHER ROUNDUP
NATIONAL WEATHER SERVICE CLEVELAND, OH
1000 PM EST TUE NOV 25 2014

NOTE: "FAIR" INDICATES FEW OR NO CLOUDS BELOW 12,000 FEET WITH NO
SIGNIFICANT WEATHER AND/OR OBSTRUCTIONS TO VISIBILITY.

OHZ001>008-015>018-024>027-034-035-043-044-260400-
   NORTHWEST OHIO

CITY           SKY/WX    TMP DP  RH WIND       PRES   REMARKS
DEFIANCE       NOT AVBL
FINDLAY        CLOUDY    30  21  69 W5        30.20S WCI  25
TOLEDO EXPRESS CLOUDY    28  20  71 CALM      30.21S
TOLEDO EXEC    CLOUDY    30  19  63 CALM      30.23R
LIMA           CLOUDY    28  21  75 W3        30.20R
$$

OHZ009>014-019>023-028>033-038-089-260400-
   NORTHEAST OHIO

CITY           SKY/WX    TMP DP  RH WIND       PRES   REMARKS
CLE-HOPKINS    CLOUDY    31  23  72 W9        30.24R WCI  23
CLE-LAKEFRONT  CLOUDY    33  24  69 SW12      30.22R WCI  24
CUY CO. ARPT   CLOUDY    34  27  75 W14       30.21R WCI  24
LORAIN-ELYRIA  CLOUDY    30  22  72 W3        30.22R
ASHTABULA      CLOUDY    33  25  72 W8        30.21R WCI  26
AKRON-CANTON   CLOUDY    33  26  75 NW7       30.19R WCI  27
WOOSTER        CLOUDY    31  25  78 NW6       30.20R WCI  25
MANSFIELD      CLOUDY    28  24  85 NW5       30.18R WCI  23
YOUNGSTOWN     CLOUDY    33  27  78 NW6       30.19R WCI  28
$$

OHZ042-051>053-060>062-070>072-077>081-260400-
  SOUTHWEST OHIO

CITY           SKY/WX    TMP DP  RH WIND       PRES   REMARKS
CINC-COVINGTON CLOUDY    32  25  75 N7        30.18R WCI  26
CINC-LUNKEN    MOCLDY    34  27  75 N6        30.21R WCI  29
HAMILTON       MOCLDY    28  25  88 CALM      30.21R
DAYTON         CLOUDY    30  25  81 NE5       30.19R WCI  25
WRIGHT-PAT AFB MOCLDY    29  25  84 NE3       30.19R
DAYTON GENERAL MOCLDY    30  26  85 NE5       30.18R WCI  25
WILMINGTON     MOCLDY    30  26  85 N6        30.17S WCI  24
$$

OHZ036-037-039>041-045>050-054>059-063>069-073>076-082>088-260400-
  CENTRAL AND SOUTHEAST OHIO

CITY           SKY/WX    TMP DP  RH WIND       PRES   REMARKS
COLUMBUS       MOCLDY    30  25  81 N7        30.19R WCI  23
OSU AIRPORT    PTCLDY    28  24  85 N7        30.19R WCI  21
BOLTON FIELD   NOT AVBL
RICKENBACK AFB MOCLDY    32  27  82 N8        30.19S WCI  25
NEWARK         PTCLDY    31  25  78 N6        30.18R WCI  25
MARION         CLOUDY    28  22  78 NW8       30.20R WCI  20
LANCASTER      MOCLDY    31  27  85 N5        30.19R WCI  26
ZANESVILLE     PTCLDY    27  24  89 CALM      30.18R
NEW PHILLY     PTCLDY    29  24  82 CALM      30.20R
$$



USA.gov is the U.S. government's official web portal to all federal, state and local government web resources and services.